TimeCDT,TemperatureF,Dew PointF,Humidity,Sea Level PressureIn,VisibilityMPH,Wind Direction,Wind SpeedMPH,Gust SpeedMPH,PrecipitationIn,Events,Conditions,WindDirDegrees,DateUTC
12:10 AM,32.0,26.6,80,30.13,10.0,WSW,4.6,-,N/A,,Clear,240,2012-10-07 05:10:00
12:29 AM,32.0,26.6,80,30.12,10.0,WSW,4.6,-,N/A,,Clear,250,2012-10-07 05:29:00
12:50 AM,32.0,26.6,80,30.12,10.0,WSW,3.5,-,N/A,,Clear,250,2012-10-07 05:50:00
1:09 AM,32.0,26.6,80,30.11,10.0,West,3.5,-,N/A,,Clear,260,2012-10-07 06:09:00
1:29 AM,32.0,26.6,80,30.11,10.0,WSW,3.5,-,N/A,,Clear,240,2012-10-07 06:29:00
1:50 AM,30.2,24.8,80,30.11,10.0,WSW,3.5,-,N/A,,Clear,240,2012-10-07 06:50:00
2:09 AM,28.4,24.8,86,30.10,10.0,WSW,4.6,-,N/A,,Clear,240,2012-10-07 07:09:00
2:29 AM,28.4,24.8,86,30.10,10.0,Calm,Calm,-,N/A,,Clear,0,2012-10-07 07:29:00
2:50 AM,28.4,23.0,80,30.09,10.0,SW,4.6,-,N/A,,Clear,220,2012-10-07 07:50:00
3:09 AM,28.4,24.8,86,30.08,10.0,SSW,4.6,-,N/A,,Clear,210,2012-10-07 08:09:00
3:29 AM,28.4,24.8,86,30.07,10.0,SW,4.6,-,N/A,,Clear,220,2012-10-07 08:29:00
3:50 AM,28.4,23.0,80,30.06,10.0,SSW,3.5,-,N/A,,Clear,210,2012-10-07 08:50:00
4:09 AM,28.4,23.0,80,30.06,10.0,SSW,3.5,-,N/A,,Clear,210,2012-10-07 09:09:00
4:29 AM,28.4,23.0,80,30.06,10.0,SSW,3.5,-,N/A,,Clear,210,2012-10-07 09:29:00
4:50 AM,26.6,23.0,86,30.05,10.0,SW,4.6,-,N/A,,Clear,220,2012-10-07 09:50:00
5:09 AM,26.6,23.0,86,30.05,10.0,SW,4.6,-,N/A,,Clear,220,2012-10-07 10:09:00
5:29 AM,26.6,23.0,86,30.05,10.0,SW,4.6,-,N/A,,Clear,220,2012-10-07 10:29:00
5:50 AM,26.6,23.0,86,30.04,10.0,SW,4.6,-,N/A,,Clear,220,2012-10-07 10:50:00
6:09 AM,28.4,23.0,80,30.03,10.0,SW,4.6,-,N/A,,Clear,220,2012-10-07 11:09:00
6:29 AM,28.4,23.0,80,30.03,10.0,SSW,4.6,-,N/A,,Clear,210,2012-10-07 11:29:00
6:50 AM,26.6,23.0,86,30.02,10.0,SSW,3.5,-,N/A,,Clear,210,2012-10-07 11:50:00
7:10 AM,26.6,23.0,86,30.02,10.0,SSW,4.6,-,N/A,,Clear,210,2012-10-07 12:10:00
7:29 AM,26.6,23.0,86,30.02,10.0,SSW,4.6,-,N/A,,Clear,210,2012-10-07 12:29:00
7:50 AM,28.4,24.8,86,30.01,10.0,SW,4.6,-,N/A,,Clear,220,2012-10-07 12:50:00
8:09 AM,28.4,26.6,93,30.00,10.0,SSW,5.8,-,N/A,,Clear,210,2012-10-07 13:09:00
8:49 AM,32.0,28.4,87,30.00,10.0,SW,9.2,-,N/A,,Clear,220,2012-10-07 13:49:00
9:09 AM,32.0,28.4,87,30.00,10.0,SW,6.9,-,N/A,,Clear,230,2012-10-07 14:09:00
9:49 AM,35.6,28.4,75,29.98,10.0,SW,11.5,16.1,N/A,,Clear,230,2012-10-07 14:49:00
10:09 AM,37.4,28.4,70,29.98,10.0,WSW,9.2,-,N/A,,Scattered Clouds,240,2012-10-07 15:09:00
10:30 AM,41.0,28.4,61,29.98,10.0,SW,13.8,-,N/A,,Scattered Clouds,230,2012-10-07 15:30:00
10:49 AM,41.0,28.4,61,29.98,10.0,SW,11.5,-,N/A,,Clear,220,2012-10-07 15:49:00
11:09 AM,42.8,28.4,57,29.97,10.0,SW,8.1,-,N/A,,Clear,220,2012-10-07 16:09:00
11:30 AM,42.8,26.6,53,29.96,10.0,SSW,9.2,17.3,N/A,,Scattered Clouds,210,2012-10-07 16:30:00
11:49 AM,44.6,26.6,49,29.95,10.0,SW,9.2,-,N/A,,Scattered Clouds,220,2012-10-07 16:49:00
12:09 PM,46.4,24.8,43,29.95,10.0,WSW,12.7,20.7,N/A,,Clear,250,2012-10-07 17:09:00
12:29 PM,46.4,26.6,46,29.95,10.0,SSW,12.7,18.4,N/A,,Clear,210,2012-10-07 17:29:00
12:49 PM,48.2,24.8,40,29.93,10.0,SW,15.0,19.6,N/A,,Scattered Clouds,220,2012-10-07 17:49:00
1:10 PM,46.4,23.0,40,29.93,10.0,WSW,10.4,-,N/A,,Scattered Clouds,240,2012-10-07 18:10:00
1:30 PM,50.0,24.8,37,29.91,10.0,WSW,13.8,19.6,N/A,,Scattered Clouds,250,2012-10-07 18:30:00
1:49 PM,46.4,23.0,40,29.91,10.0,WSW,17.3,21.9,N/A,,Clear,240,2012-10-07 18:49:00
2:09 PM,48.2,23.0,37,29.90,10.0,WSW,13.8,23.0,N/A,,Clear,240,2012-10-07 19:09:00
2:30 PM,-9999,-9999,N/A,-9999,10.0,West,16.1,20.7,N/A,,Clear,260,2012-10-07 19:30:00
2:49 PM,51.8,23.0,33,29.89,10.0,SW,16.1,26.5,N/A,,Clear,230,2012-10-07 19:49:00
3:09 PM,50.0,23.0,35,29.88,10.0,WSW,13.8,21.9,N/A,,Clear,240,2012-10-07 20:09:00
3:30 PM,53.6,21.2,28,29.87,10.0,WSW,15.0,24.2,N/A,,Scattered Clouds,240,2012-10-07 20:30:00
3:49 PM,50.0,19.4,30,29.87,10.0,West,15.0,25.3,N/A,,Scattered Clouds,260,2012-10-07 20:49:00
4:09 PM,51.8,23.0,33,29.86,10.0,SSW,12.7,20.7,N/A,,Clear,210,2012-10-07 21:09:00
4:30 PM,50.0,23.0,35,29.86,10.0,SW,16.1,23.0,N/A,,Clear,230,2012-10-07 21:30:00
4:49 PM,50.0,23.0,35,29.86,10.0,SW,18.4,25.3,N/A,,Clear,220,2012-10-07 21:49:00
5:09 PM,48.2,21.2,34,29.86,10.0,SW,10.4,19.6,N/A,,Clear,220,2012-10-07 22:09:00
5:30 PM,46.4,21.2,37,29.86,10.0,SW,13.8,20.7,N/A,,Clear,220,2012-10-07 22:30:00
5:49 PM,46.4,21.2,37,29.86,10.0,SW,12.7,18.4,N/A,,Clear,230,2012-10-07 22:49:00
6:09 PM,46.4,19.4,34,29.86,10.0,SW,6.9,11.5,N/A,,Clear,220,2012-10-07 23:09:00
6:29 PM,44.6,19.4,37,29.86,10.0,SSW,6.9,-,N/A,,Clear,210,2012-10-07 23:29:00
6:49 PM,42.8,19.4,39,29.86,10.0,SSW,6.9,-,N/A,,Clear,210,2012-10-07 23:49:00
7:10 PM,41.0,19.4,42,29.86,10.0,SSW,5.8,-,N/A,,Clear,200,2012-10-08 00:10:00
7:50 PM,39.2,21.2,49,29.85,10.0,South,5.8,-,N/A,,Clear,190,2012-10-08 00:50:00
8:10 PM,41.0,21.2,45,29.85,10.0,South,6.9,-,N/A,,Mostly Cloudy,190,2012-10-08 01:10:00
8:29 PM,41.0,21.2,45,29.85,10.0,South,8.1,-,N/A,,Scattered Clouds,190,2012-10-08 01:29:00
8:50 PM,41.0,21.2,45,29.85,10.0,SSW,8.1,-,N/A,,Scattered Clouds,200,2012-10-08 01:50:00
9:10 PM,41.0,21.2,45,29.84,10.0,South,9.2,-,N/A,,Overcast,190,2012-10-08 02:10:00
9:29 PM,41.0,21.2,45,29.84,10.0,SSW,9.2,-,N/A,,Overcast,210,2012-10-08 02:29:00
9:50 PM,41.0,21.2,45,29.83,10.0,SSW,10.4,-,N/A,,Overcast,200,2012-10-08 02:50:00
10:10 PM,41.0,19.4,42,29.83,10.0,SSW,10.4,-,N/A,,Overcast,200,2012-10-08 03:10:00
10:30 PM,-9999,-9999,N/A,29.82,10.0,SSW,10.4,-,N/A,,Overcast,200,2012-10-08 03:30:00
10:49 PM,41.0,19.4,42,29.82,10.0,South,11.5,-,N/A,,Overcast,190,2012-10-08 03:49:00
11:09 PM,41.0,19.4,42,29.80,10.0,SSW,10.4,-,N/A,,Overcast,200,2012-10-08 04:09:00
11:30 PM,41.0,19.4,42,29.80,10.0,SSW,9.2,-,N/A,,Overcast,200,2012-10-08 04:30:00
11:49 PM,41.0,21.2,45,29.80,10.0,SSW,8.1,-,N/A,,Overcast,210,2012-10-08 04:49:00